www.pogodaiklimat.ru

Погода и климат >> Архив погоды >> Мексика >> Coatzacoalcos


ПОГОДА в Coatzacoalcos

  • Прогноз погоды в Coatzacoalcos
  • Монитор погоды в Coatzacoalcos
  • Климат города

АРХИВ ПОГОДЫ в Coatzacoalcos

Время (UTC), дата Ветер
(напр.,м/с)
 
Видим.   Явления Облачность Т
(С)
Тd
(С)
f
(%)
Тe
(С)
Тes
(С)
Комфортность P
(гПа)
Po
(гПа)
Тmin
(С)
Tmax
(С)
R
(мм)
R24
(мм)
S
(см)
15 11.09 СВ 3 900 м мгла {туман} 5/5 400 м
[Cu med, cong]
+27.8 +25.3 86 +40 +44 очень
душно
1009.1 1007.3
18 11.09 СВ 3 11 км мгла {туман} 8/5 400 м
[Cu med, cong Ac und]
+28.6 +25.8 85 +43 +48 опасность
перегрева
1009.7 1007.8 +23.3 +31.4
21 11.09 СЗ 3 8000 м мгла {туман} 6/5 360 м
[Cu med, cong Ac trans]
+31.6 +26.9 76 +49 +53 опасность
перегрева
1007.2 1005.4
00 12.09 СВ 3 8000 м мгла {туман} 5/4 300 м
[Cu med, cong Ac trans]
+30.2 +26.2 79 +46 +46 опасность
перегрева
1007.0 1005.2 0.0
03 12.09 СВ 4 5000 м зарница {туман} 4/4 450 м
[Cb calv]
+27.0 +23.4 81 +37 +37 очень
душно
1010.0 1008.2
15 12.09 Ю 2 4000 м мгла {туман} 6/4 1500 м
[Cu med, cong Ac trans]
+26.5 +25.0 91 +38 +42 очень
душно
1009.7 1007.9
18 12.09 Ю 1 15 км мгла {туман} 5/3 1500 м
[Cu med, cong Ac trans]
+32.8 +26.1 68 +49 +63 опасность
перегрева
1009.6 1007.7 +23.3 +34.1
21 12.09 С 4 7000 м мгла {туман} 6/4 700 м
[Cu med, cong Cs]
+32.0 +26.5 73 +49 +53 опасность
перегрева
1007.3 1005.5
00 13.09 С 4 7000 м мгла {туман} 5/3 300 м
[Cu med, cong Cc]
+30.0 +25.5 77 +44 +44 опасность
перегрева
1007.3 1005.5 +23.3 +35.2
12 13.09 СВ 2 4000 м мгла {туман} 8/5 330 м
[Cu med, cong As op]
+24.9 +24.4 97 +35 +35 очень
душно
1007.8 1006.0 +22.1 +35.2
15 13.09 СВ 1 4000 м мгла {туман} 8/5 360 м
[Cu med, cong Ac trans]
+28.4 +25.5 84 +42 +45 опасность
перегрева
1010.2 1008.3
18 13.09 СВ 2 8000 м мгла {туман} 8/5 360 м
[Cu med, cong Ac trans]
+29.8 +26.1 81 +45 +52 опасность
перегрева
1010.3 1008.4 +22.1 +31.6
21 13.09 СВ 2 8000 м мгла {туман} 8/5 360 м
[Cu med, cong Ac trans]
+29.2 +25.2 79 +42 +46 опасность
перегрева
1007.6 1005.8
00 14.09 СЗ 2 8000 м мгла {туман} 6/5 300 м
[Cu med, cong Ac trans]
+29.4 +25.7 81 +44 +44 опасность
перегрева
1007.9 1006.0 +22.1 +31.6
03 14.09 штиль 0 4000 м мгла {туман} 5/5 210 м
[Cu med, cong]
+28.4 +25.9 86 +42 +42 опасность
перегрева
1010.5 1008.7
09 14.09 ЮЗ 2 4000 м мгла {туман} 8/6 90 м
[St As op]
+25.0 +24.2 95 +34 +34 очень
душно
1009.0 1007.2
15 14.09 ЮВ 2 9000 м мгла {туман} 4/4 420 м
[Cu med, cong]
+27.0 +24.6 87 +38 +43 очень
душно
1009.6 1007.8
18 14.09 СВ 3 7000 м мгла {туман} 5/4 450 м
[Cu med, cong Ac und]
+30.6 +25.5 74 +45 +54 опасность
перегрева
1010.4 1008.5 +24.0 +32.0
03 15.09 СВ 2 4000 м мгла {туман} 5/4 330 м
[Cu med, cong As op]
+28.6 +26.1 86 +43 +43 опасность
перегрева
1009.6 1007.8
06 15.09 СВ 2 4000 м мгла {туман} 6/4 300 м
[Cu med, cong As op]
+28.3 +25.9 87 +42 +42 опасность
перегрева
1010.3 1008.5 +33.7
21 15.09 СВ 5 15 км мгла {туман} 4/3 1500 м
[Cu med, cong Ac trans]
+31.3 +26.0 74 +47 +51 опасность
перегрева
1008.2 1006.4
03 16.09 СВ 3 5000 м мгла {туман} 6/4 330 м
[Cu med, cong As op]
+28.8 +25.6 83 +43 +43 опасность
перегрева
1009.7 1007.9
06 16.09 СВ 3 5000 м мгла {туман} 9/6 300 м
[Cb calv As op]
+28.5 +26.1 87 +43 +43 опасность
перегрева
1009.9 1008.0 +33.0
09 16.09 штиль 0 4000 м зарница {туман} 3/3 210 м
[Cb calv]
+27.8 +26.3 92 +42 +42 опасность
перегрева
1009.1 1007.3
12 16.09 ЮЗ 1 4000 м зарница {туман} 8/5 240 м
[Cb calv As op]
+25.4 +24.7 96 +36 +36 очень
душно
1008.9 1007.1 +24.4 +33.0
15 16.09 штиль 0 15 км мгла {туман} 4/3 1500 м
[Cu med, cong Ac trans]
+29.4 +25.7 81 +44 +51 опасность
перегрева
1010.1 1008.3
18 16.09 СВ 1 15 км мгла {туман} 4/3 1500 м
[Cu med, cong Ac trans]
+32.0 +25.3 68 +46 +61 опасность
перегрева
1010.2 1008.4 +24.4 +33.6
21 16.09 СВ 1 15 км мгла {туман} 6/4 1500 м
[Cu med, cong Ac trans]
+31.8 +26.3 73 +48 +55 опасность
перегрева
1008.3 1006.5
15 17.09 СВ 2 8000 м мгла {туман} 8/5 360 м
[Cu med, cong Ac trans]
+27.6 +26.5 94 +42 +45 опасность
перегрева
1011.6 1009.8
18 17.09 СВ 2 8000 м мгла {туман} 6/5 360 м
[Cu med, cong Ac trans]
+31.6 +25.8 71 +47 +55 опасность
перегрева
1011.3 1009.5 +23.0 +32.8
21 17.09 СВ 4 10 км мгла {туман} 8/5 420 м
[Cu med, cong Ac und]
+30.6 +26.1 77 +46 +48 опасность
перегрева
1010.2 1008.4
00 18.09 С 5 10 км мгла {туман} 8/5 300 м
[Cu med, cong Ac und]
+29.6 +26.7 84 +46 +46 опасность
перегрева
1008.4 1006.6 +23.0 +33.0
09 18.09 СВ 4 5000 м мгла {туман} 8/5 270 м
[Cu Sc As op]
+28.7 +25.9 85 +43 +43 опасность
перегрева
1011.0 1009.2

 

Местоположение метеостанции Coatzacoalcos (Мексика): широта 18.13 долгота -94.41 высота над уровнем моря 22 м.

В архиве по умолчанию представлена погода в Coatzacoalcos за последнюю неделю. Архивные данные за месяц целиком и за предыдущие месяцы, начиная с января 2011 года, Вы можете получить, выбрав интересующий диапазон дат из раскрывающегося списка и нажав кнопку "Ввод!".


*Определитесь, кто Вы:
робот инопланетянин человек

Внимание! Время в таблицах - всемирное. Для получения местного времени необходимо прибавить поправку, которая в Coatzacoalcos равна -6 ч.

Смотрите также архив погоды в соседних городах и на ближайших метеорологических станциях:

Погода в Villahermosa (Мексика) (157 км)
Погода в Tuxtla Gutierrez (Мексика) (205 км)
Погода в Verakruz (Мексика) (212 км)
Погода в Arriaga (Мексика) (218 км)
Погода в Salina Cruz (Мексика) (233 км)
Погода в Sn. Cristobal Las Casas (Мексика) (243 км)
Погода в Oaxaca (Мексика) (272 км)
Погода в Cordoba-In-Veracruz (Мексика) (279 км)
Погода в Orizaba (Мексика) (295 км)
Погода в Jalapa (Мексика) (307 км)

Пояснения к столбцам:

Ветер - указаны скорость ветра в м/с - средняя за 10 мин, порывы в срок и между сроками (в фигурных скобках) и направление, откуда дует ветер: С - северный, СВ - северо-восточный, В - восточный, ЮВ - юго-восточный, Ю - южный, ЮЗ - юго-западный, З - западный, СЗ - северо-западный.
Видимость - горизонтальная дальность видимости в метрах или километрах. При видимости от 1 до 10 км при отсутствии осадков обычно наблюдается дымка, при ухудшении видимости до 1 км и менее - туман. В сухую погоду видимость может ухудшаться дымом, пылью или мглою.
Явления - указаны атмосферные явления, наблюдавшиеся в срок или в последний час перед сроком; фигурными скобками обозначены явления, наблюдавшиеся между сроками (за 1-3 часа до срока); квадратными скобками обозначены град или гололедные отложения с указанием их диаметра в мм.
Облачность - указаны через наклонную черту общая и нижняя облачность в баллах и высота нижней границы облаков в метрах; квадратными скобками обозначены формы облаков: Ci - перистые, Cs - перисто-слоистые, Cc - перисто-кучевые, Ac - высококучевые, As - высокослоистые, Sc - слоисто-кучевые, Ns - слоисто-дождевые, Cu - кучевые, Cb - кучево-дождевые. Подробнее классификацию облаков см. в Атласе облаков (PDF).
T - Температура воздуха - температура, измеренная на высоте 2 м над землей.
Td - Температура точки росы - температура, при понижении до которой содержащийся в воздухе водяной пар достигнет насыщения.
f - Относительная влажность воздуха - влажноcть воздуха, измеренная на высоте 2 м над землей.
Te - Эффективная температура - температура, которую ощущает одетый по сезону человек в тени. Характеристика душности погоды. При расчете учитывается влияние влажности воздуха и скорости ветра на теплоощущения человека.
Tes - Эффективная температура на солнце - температура, которую ощущает человек, с поправкой на солнечный нагрев. Характеристика знойности погоды. Зависит от высоты солнца над горизонтом, облачности и скорости ветра. Ночью, в пасмурную погоду, а также при ветре 12 м/с и более поправка равна нулю.
P - Атмосферное давление - приведенное к уровню моря атмосферное давление.
Po - Атмосферное давление - измеренное на уровне метеостанции атмосферное давление.
Tmin - Минимальная температура - минимум температуры воздуха на высоте 2 м над землей.
Tmax - Максимальная температура - максимум температуры воздуха на высоте 2 м над землей.
R - Количество осадков - Количество выпавших осадков за период времени, мм. При наведении курсора мыши на число - период времени, за который выпало указанное количество осадков.
R24 - Количество осадков - Количество выпавших осадков за 24 часа, мм.
S - Снежный покров - Высота снежного покрова, см. При наведении курсора мыши на число - состояние снежного покрова и степень покрытия местности в баллах.